This is the latest recevied weather packets stored in our database for station/object IN3XSV-13. If no packets are shown the sender has not sent any weather packets the latest 10 day(s).
| Time | Temp. | Humidity | Pressure | Rain* | Wind** | Luminosity | Snow |
|---|---|---|---|---|---|---|---|
| 1787823167 | 34.44° C | 50% | 1012.4 hPa | 0 mm | - | - | - |
| 1787822867 | 33.33° C | 52% | 1012.5 hPa | 0 mm | - | - | - |
| 1787822567 | 32.78° C | 53% | 1012.5 hPa | 0 mm | - | - | - |
| 1787822267 | 32.22° C | 54% | 1012.7 hPa | 0 mm | - | - | - |
| 1787821967 | 31.11° C | 55% | 1012.7 hPa | 0 mm | - | - | - |
| 1787821667 | 31.11° C | 55% | 1012.8 hPa | 0 mm | - | - | - |
| 1787821367 | 31.11° C | 56% | 1012.8 hPa | 0 mm | - | - | - |
| 1787821067 | 30.56° C | 56% | 1012.8 hPa | 0 mm | - | - | - |
| 1787820767 | 30° C | 56% | 1012.8 hPa | 0 mm | - | - | - |
| 1787820467 | 30.56° C | 56% | 1012.7 hPa | 0 mm | - | - | - |
| 1787820167 | 31.11° C | 54% | 1012.8 hPa | 0 mm | - | - | - |
| 1787819867 | 32.78° C | 54% | 1012.7 hPa | 0 mm | - | - | - |
| 1787819567 | 32.22° C | 56% | 1012.8 hPa | 0 mm | - | - | - |
| 1787819267 | 31.67° C | 58% | 1012.8 hPa | 0 mm | - | - | - |
| 1787818967 | 30.56° C | 59% | 1012.9 hPa | 0 mm | - | - | - |
| 1787818667 | 30° C | 62% | 1012.9 hPa | 0 mm | - | - | - |
| 1787818367 | 28.89° C | 63% | 1012.9 hPa | 0 mm | - | - | - |
| 1787818067 | 28.89° C | 62% | 1013.1 hPa | 0 mm | - | - | - |
| 1787817767 | 28.89° C | 65% | 1012.9 hPa | 0 mm | - | - | - |
| 1787817467 | 28.33° C | 64% | 1013.1 hPa | 0 mm | - | - | - |
| 1787817167 | 28.33° C | 65% | 1013.1 hPa | 0 mm | - | - | - |
| 1787816867 | 28.33° C | 67% | 1013.1 hPa | 0 mm | - | - | - |
| 1787816567 | 27.78° C | 69% | 1013 hPa | 0 mm | - | - | - |
| 1787816267 | 26.67° C | 70% | 1012.9 hPa | 0 mm | - | - | - |
| 1787815967 | 26.11° C | 72% | 1012.8 hPa | 0 mm | - | - | - |
* Rain latest hour (hover to see other rain measurements)
** Current wind speed in m/s (hover to see current wind gust speed)